Location: Ab? ar R?sh Ba?r?
(24.1861°N, 32.8847°E)
Time: 11:06:53
(UTC+00:00)

Cosmos 1269 Rocket - Pass Details

Date: 24 October 2021
Orbit: 773 x 778 km, 74.1° (Epoch: 03 December)

Event Time Altitude Azimuth Distance (km) Brightness Sun altitude
Rises 16:16:31 0° 341° (NNW) 3,251 7.4 -14.8°
Reaches altitude 10° 16:18:55 10° 339° (NNW) 2,321 6.7 -15.3°
Maximum altitude 16:24:08 67° 258° (WSW) 837 4.4 -16.5°
Drops below altitude 10° 16:29:20 10° 176° (S) 2,309 6.5 -17.7°
Sets 16:31:43 0° 173° (S) 3,233 7.2 -18.2°
